Tracking 21473 objects as of 26-Sep-2020
HD Live streaming from Space Station
objects crossing your sky now

COSMOS 2209

Track COSMOS 2209 now!
COSMOS 2209 is classified as:


NORAD ID: 22112
Int'l Code: 1992-059A
Perigee: 35,728.9 km
Apogee: 35,815.6 km
Inclination: 14.9 °
Period: 1,435.0 minutes
Semi major axis: 42143 km
RCS: 5.0119 m2 (large)
Launch date: September 10, 1992
Source: Commonwealth of Independent States (former USSR) (CIS)
Launch site: TYURATAM MISSILE AND SPACE COMPLEX (TTMTR)
aabbcc
Your satellite tracking list
Your tracking list is empty




NASA's NSSDC Master Catalog

Two Line Element Set (TLE):
1 22112U 92059A   20269.38053883 -.00000319 +00000-0 +00000-0 0  9994
2 22112 014.8736 359.3361 0010288 303.9248 142.0376 01.00348653102654
Source of the keplerian elements: AFSPC